| time (UTC) | temp C | wind direction | speed KPH | gust KPH | rain 1hr cm | rain 24hr cm | rain mn cm | humidity % | barometer mb |
| 20260507134515 | 6 | 251 | 27.4 | 40.2 | 0.00 | 0.84 | 0.03 | 89 | 1022.6 |
| 20260507133011 | 5 | 360 | 29.0 | 37.0 | 0.00 | 0.84 | 0.03 | 91 | 1023.0 |
| 20260507131513 | 4 | 248 | 25.7 | 33.8 | 0.00 | 0.84 | 0.03 | 92 | 1023.1 |
| 20260507130004 | 3 | 254 | 24.1 | 32.2 | 0.00 | 0.84 | 0.03 | 94 | 1023.0 |
| 20260507124502 | 2 | 249 | 20.9 | 25.7 | 0.03 | 0.84 | 0.03 | 94 | 1023.1 |
| 20260507123101 | 2 | 238 | 19.3 | 24.1 | 0.03 | 0.84 | 0.03 | 95 | 1023.0 |
| 20260507121608 | 1 | 242 | 17.7 | 22.5 | 0.03 | 0.84 | 0.03 | 95 | 1023.0 |
| 20260507114613 | 1 | 249 | 19.3 | 24.1 | 0.03 | 0.84 | 0.03 | 95 | 1023.2 |
| 20260507113054 | 1 | 246 | 16.1 | 20.9 | 0.00 | 0.81 | 0.00 | 95 | 1023.0 |
| 20260507111559 | 1 | 257 | 14.5 | 17.7 | 0.00 | 0.81 | 0.00 | 95 | 1022.9 |
| 20260507110054 | 1 | 256 | 12.9 | 17.7 | 0.00 | 0.81 | 0.00 | 95 | 1023.1 |
| 20260507104552 | 1 | 257 | 12.9 | 17.7 | 0.00 | 0.81 | 0.00 | 94 | 1023.3 |
| 20260507103049 | 1 | 264 | 9.7 | 16.1 | 0.00 | 0.81 | 0.00 | 95 | 1022.9 |
| 20260507101547 | 1 | 282 | 8.0 | 12.9 | 0.00 | 0.81 | 0.00 | 94 | 1023.3 |
| 20260507100046 | 1 | 267 | 8.0 | 14.5 | 0.00 | 0.81 | 0.00 | 94 | 1023.4 |
| 20260507094546 | 1 | 262 | 9.7 | 12.9 | 0.00 | 0.81 | 0.00 | 94 | 1023.5 |
| 20260507093052 | 1 | 258 | 8.0 | 12.9 | 0.00 | 0.81 | 0.00 | 94 | 1023.1 |
| 20260507091550 | 1 | 287 | 9.7 | 14.5 | 0.00 | 0.81 | 0.00 | 94 | 1023.2 |
| 20260507090041 | 1 | 269 | 4.8 | 9.7 | 0.00 | 0.81 | 0.00 | 94 | 1022.9 |
| 20260507084539 | 1 | 277 | 3.2 | 6.4 | 0.00 | 0.81 | 0.00 | 94 | 1022.9 |
| 20260507083039 | 1 | 276 | 3.2 | 6.4 | 0.00 | 0.81 | 0.00 | 94 | 1023.1 |
| 20260507081543 | 1 | 276 | 4.8 | 6.4 | 0.00 | 0.81 | 0.00 | 93 | 1023.4 |
| 20260507080032 | 2 | 314 | 0.0 | 0.0 | 0.00 | 0.81 | 0.00 | 93 | 1023.4 |
| 20260507074549 | 2 | 314 | 0.0 | 4.8 | 0.00 | 0.81 | 0.00 | 93 | 1023.5 |
| 20260507073028 | 2 | 315 | 4.8 | 6.4 | 0.00 | 0.81 | 0.00 | 93 | 1023.8 |
| 20260507071526 | 2 | 316 | 3.2 | 4.8 | 0.00 | 0.81 | 0.00 | 93 | 1024.0 |
| 20260507070024 | 3 | 317 | 3.2 | 8.0 | 0.00 | 0.81 | 0.00 | 93 | 1024.0 |
| 20260507064523 | 3 | 302 | 6.4 | 11.3 | 0.00 | 0.81 | 0.00 | 93 | 1024.1 |
| 20260507063025 | 3 | 5 | 3.2 | 4.8 | 0.00 | 0.81 | 0.00 | 93 | 1024.2 |
| 20260507061520 | 3 | 5 | 1.6 | 4.8 | 0.00 | 0.81 | 0.00 | 93 | 1024.3 |
| 20260507060025 | 3 | 5 | 1.6 | 4.8 | 0.00 | 0.81 | 0.00 | 93 | 1024.2 |
| 20260507054521 | 3 | 5 | 1.6 | 3.2 | 0.00 | 0.81 | 0.00 | 93 | 1024.1 |
| 20260507053019 | 3 | 5 | 1.6 | 4.8 | 0.00 | 0.81 | 0.00 | 93 | 1024.3 |
| 20260507051515 | 3 | 41 | 0.0 | 4.8 | 0.00 | 0.81 | 0.00 | 93 | 1024.4 |
| 20260507050024 | 3 | 42 | 3.2 | 4.8 | 0.03 | 0.81 | 0.00 | 93 | 1024.0 |
| 20260507044510 | 3 | 42 | 3.2 | 6.4 | 0.08 | 0.81 | 0.81 | 93 | 1024.1 |
| 20260507043010 | 3 | 44 | 4.8 | 9.7 | 0.20 | 0.81 | 0.81 | 93 | 1024.1 |
| 20260507041509 | 3 | 36 | 4.8 | 12.9 | 0.28 | 0.81 | 0.81 | 92 | 1024.1 |
| 20260507040009 | 3 | 28 | 9.7 | 19.3 | 0.38 | 0.79 | 0.79 | 92 | 1024.2 |
| 20260507034507 | 3 | 31 | 11.3 | 19.3 | 0.43 | 0.71 | 0.71 | 91 | 1024.2 |
| 20260507033016 | 4 | 42 | 6.4 | 17.7 | 0.48 | 0.61 | 0.61 | 91 | 1024.2 |
| 20260507031506 | 4 | 57 | 11.3 | 17.7 | 0.41 | 0.51 | 0.51 | 91 | 1023.4 |
| 20260507030004 | 4 | 43 | 8.0 | 17.7 | 0.30 | 0.38 | 0.38 | 90 | 1023.3 |
| 20260507024502 | 4 | 43 | 4.8 | 11.3 | 0.23 | 0.28 | 0.28 | 90 | 1023.5 |
| 20260507023106 | 4 | 47 | 4.8 | 17.7 | 0.10 | 0.13 | 0.13 | 90 | 1023.0 |
| 20260507021602 | 4 | 62 | 12.9 | 22.5 | 0.10 | 0.10 | 0.10 | 89 | 1022.4 |
| 20260507020100 | 5 | 29 | 24.1 | 33.8 | 0.08 | 0.08 | 0.08 | 87 | 1022.6 |
| 20260507014604 | 5 | 46 | 19.3 | 25.7 | 0.05 | 0.05 | 0.05 | 85 | 1022.8 |
| 20260507013055 | 5 | 46 | 19.3 | 30.6 | 0.03 | 0.03 | 0.03 | 82 | 1022.4 |
| 20260507011554 | 6 | 345 | 19.3 | 32.2 | 0.00 | 0.00 | 0.00 | 78 | 1021.7 |
| 20260507010052 | 7 | 39 | 20.9 | 30.6 | 0.00 | 0.00 | 0.00 | 70 | 1021.3 |
| 20260507004551 | 8 | 54 | 14.5 | 27.4 | 0.00 | 0.00 | 0.00 | 66 | 1021.2 |
| 20260507003051 | 8 | 55 | 24.1 | 33.8 | 0.00 | 0.00 | 0.00 | 65 | 1020.4 |
| 20260507001546 | 9 | 48 | 19.3 | 27.4 | 0.00 | 0.00 | 0.00 | 65 | 1020.1 |
| 20260507000044 | 9 | 44 | 16.1 | 27.4 | 0.00 | 0.00 | 0.00 | 65 | 1019.7 |
| 20260506234542 | 10 | 44 | 16.1 | 27.4 | 0.00 | 0.00 | 0.00 | 64 | 1019.2 |
| 20260506233046 | 10 | 42 | 16.1 | 27.4 | 0.00 | 0.00 | 0.00 | 63 | 1019.0 |
| 20260506231542 | 10 | 360 | 12.9 | 29.0 | 0.00 | 0.00 | 0.00 | 63 | 1018.8 |
| 20260506230041 | 10 | 360 | 22.5 | 35.4 | 0.00 | 0.00 | 0.00 | 63 | 1018.6 |
| 20260506224541 | 11 | 360 | 25.7 | 33.8 | 0.00 | 0.00 | 0.00 | 63 | 1018.2 |
| 20260506223040 | 10 | 360 | 19.3 | 35.4 | 0.00 | 0.00 | 0.00 | 66 | 1018.1 |
| 20260506221539 | 11 | 360 | 24.1 | 38.6 | 0.00 | 0.00 | 0.00 | 65 | 1018.2 |
| 20260506220039 | 11 | 360 | 20.9 | 32.2 | 0.00 | 0.00 | 0.00 | 64 | 1018.4 |
| 20260506214537 | 10 | 51 | 14.5 | 32.2 | 0.00 | 0.00 | 0.00 | 68 | 1018.4 |
| 20260506213037 | 10 | 78 | 14.5 | 33.8 | 0.00 | 0.00 | 0.00 | 70 | 1018.2 |
| 20260506211536 | 10 | 360 | 12.9 | 24.1 | 0.00 | 0.00 | 0.00 | 71 | 1018.4 |
| 20260506210035 | 10 | 71 | 9.7 | 20.9 | 0.00 | 0.00 | 0.00 | 72 | 1018.7 |
| 20260506204535 | 11 | 360 | 17.7 | 25.7 | 0.00 | 0.00 | 0.00 | 73 | 1018.8 |
| 20260506203034 | 9 | 360 | 14.5 | 24.1 | 0.00 | 0.00 | 0.00 | 74 | 1019.1 |
| 20260506201528 | 8 | 360 | 9.7 | 20.9 | 0.00 | 0.00 | 0.00 | 79 | 1019.3 |
| 20260506200026 | 7 | 360 | 9.7 | 17.7 | 0.00 | 0.00 | 0.00 | 81 | 1019.1 |
| 20260506194524 | 7 | 360 | 16.1 | 24.1 | 0.00 | 0.00 | 0.00 | 81 | 1019.1 |
| 20260506193021 | 6 | 360 | 12.9 | 25.7 | 0.00 | 0.00 | 0.00 | 84 | 1019.4 |
| 20260506191520 | 6 | 360 | 14.5 | 22.5 | 0.00 | 0.00 | 0.00 | 85 | 1019.2 |
| 20260506190019 | 6 | 360 | 12.9 | 20.9 | 0.00 | 0.00 | 0.00 | 86 | 1019.4 |
| 20260506184516 | 5 | 360 | 11.3 | 20.9 | 0.00 | 0.00 | 0.00 | 87 | 1019.7 |
| 20260506183014 | 5 | 360 | 11.3 | 20.9 | 0.00 | 0.00 | 0.00 | 89 | 1019.5 |
| 20260506181514 | 5 | 360 | 16.1 | 27.4 | 0.00 | 0.00 | 0.00 | 90 | 1019.3 |
| 20260506180014 | 5 | 360 | 16.1 | 22.5 | 0.00 | 0.00 | 0.00 | 90 | 1019.7 |
| 20260506174512 | 5 | 360 | 14.5 | 22.5 | 0.00 | 0.00 | 0.00 | 91 | 1019.6 |
| 20260506173012 | 5 | 360 | 16.1 | 24.1 | 0.00 | 0.00 | 0.00 | 91 | 1019.6 |
| 20260506171512 | 5 | 104 | 12.9 | 19.3 | 0.00 | 0.00 | 0.00 | 92 | 1019.2 |
| 20260506170009 | 4 | 79 | 14.5 | 22.5 | 0.00 | 0.00 | 0.00 | 91 | 1019.1 |
| 20260506164508 | 4 | 100 | 12.9 | 19.3 | 0.00 | 0.00 | 0.00 | 91 | 1019.2 |
| 20260506163017 | 4 | 86 | 9.7 | 17.7 | 0.00 | 0.00 | 0.00 | 90 | 1018.9 |
| 20260506161504 | 4 | 108 | 11.3 | 19.3 | 0.00 | 0.00 | 0.00 | 90 | 1019.0 |
| 20260506160011 | 4 | 74 | 11.3 | 19.3 | 0.00 | 0.00 | 0.00 | 89 | 1018.9 |
| 20260506154628 | 4 | 94 | 11.3 | 17.7 | 0.00 | 0.00 | 0.00 | 89 | 1018.3 |
| 20260506153110 | 4 | 92 | 11.3 | 17.7 | 0.00 | 0.00 | 0.00 | 88 | 1018.3 |
| 20260506151600 | 4 | 111 | 12.9 | 17.7 | 0.00 | 0.00 | 0.00 | 87 | 1018.0 |
| 20260506144557 | 4 | 80 | 12.9 | 19.3 | 0.00 | 0.00 | 0.00 | 86 | 1018.0 |
| 20260506143105 | 4 | 92 | 12.9 | 20.9 | 0.00 | 0.00 | 0.00 | 85 | 1017.9 |
| 20260506141554 | 4 | 113 | 16.1 | 22.5 | 0.00 | 0.00 | 0.00 | 84 | 1017.5 |
| 20260506140058 | 5 | 115 | 16.1 | 24.1 | 0.00 | 0.00 | 0.00 | 83 | 1017.5 |